Wind_Speed
8 15 21 22 23 26 27 28 28 26 25 24 22 21 20 21 22 21 20 20 20 20 19 18 16 14 12 11 11 10 8 6 6 5 5 4 4 3 2 1 2 1 1 1 1 1 2 4 4 4 5 4 4 2 2 5 9 9 7 7 10 13 11 9 9 10 12 13 11 9 9 9 10 12 15 17 19 19 18 18 19 20 22 24 26
7 12 16 17 19 22 25 27 29 28 27 26 24 23 21 21 23 23 23 23 21 20 19 17 16 14 13 12 11 10 7 5 6 5 4 4 3 2 1 0 1 1 1 1 2 2 2 3 6 7 8 8 9 9 8 6 3 7 6 5 6 8 7 7 9 7 5 4 6 7 8 10 11 11 13 15 17 19 20 20 19 20 21 22 24
8 10 13 17 18 21 24 27 29 28 28 27 25 24 24 23 24 25 26 25 22 19 18 17 15 13 12 11 11 10 8 7 7 6 4 3 3 2 2 2 2 2 3 3 4 5 4 4 6 8 10 10 10 12 11 11 8 5 5 6 6 7 7 7 7 7 5 4 5 4 3 4 6 7 10 14 17 18 20 21 21 21 22 21 23
10 11 11 13 16 20 23 26 27 26 28 29 28 27 27 27 27 28 27 25 23 20 17 16 14 13 12 11 11 10 10 9 8 6 5 3 3 3 3 2 2 1 1 3 4 5 5 6 7 8 10 10 10 12 13 13 13 11 10 9 7 6 5 6 4 3 4 4 3 2 1 2 2 3 7 10 14 18 21 22 22 22 22 21 23
13 13 11 12 16 21 23 25 26 27 29 30 30 31 31 30 30 29 28 25 23 20 18 16 15 15 14 12 11 10 10 10 8 7 6 4 3 3 2 3 3 3 3 2 2 2 3 4 5 7 8 8 8 10 11 11 12 12 13 13 12 9 7 6 5 6 5 2 2 1 1 2 2 3 7 6 8 11 16 20 22 23 22 21 22
12 13 14 14 17 19 21 24 26 28 31 32 33 34 34 32 31 30 28 26 23 21 19 17 17 18 17 15 14 13 12 10 8 8 6 4 3 3 3 5 6 5 4 2 1 0 0 1 2 5 6 6 7 7 8 8 9 11 11 12 13 12 10 10 10 10 8 6 6 4 4 4 3 4 4 3 7 10 9 10 14 16 18 20 21
11 12 14 14 15 18 20 25 29 30 30 32 33 35 34 33 32 31 28 26 24 22 20 19 19 20 18 17 15 14 13 11 9 8 6 4 4 3 3 5 6 6 6 4 3 1 0 1 1 2 4 4 4 5 6 7 8 9 9 10 11 11 11 12 12 12 9 9 9 8 7 7 6 5 2 2 5 8 10 13 11 9 10 13 16
13 13 14 14 15 20 24 29 31 30 29 31 34 34 34 33 32 31 29 27 25 23 22 21 22 21 19 17 15 14 13 11 10 9 7 6 5 4 4 5 4 5 6 5 4 2 2 2 2 3 4 5 5 5 7 7 7 7 8 8 9 10 11 11 10 10 10 10 10 9 8 8 7 7 7 5 3 4 9 15 17 16 14 13 13
15 16 16 15 18 25 29 30 30 29 31 34 35 36 35 34 33 31 29 28 25 24 23 23 24 22 19 17 16 14 12 11 11 10 9 8 7 6 6 5 4 4 5 4 4 3 3 4 5 6 6 7 6 7 7 7 8 9 9 9 9 10 10 10 9 9 10 10 9 9 9 9 8 6 6 7 5 4 4 6 12 18 19 19 18
15 16 16 18 24 29 29 26 27 29 31 33 34 35 36 35 34 32 31 29 26 25 25 25 25 24 20 18 17 16 15 13 13 12 12 10 9 8 6 6 5 4 4 4 3 3 4 4 4 5 6 7 7 7 8 8 9 10 10 10 10 10 10 10 9 9 9 9 8 9 9 9 8 5 5 5 5 6 5 4 8 11 12 19 23
14 14 14 18 21 22 22 22 25 26 27 29 31 33 35 35 35 35 33 30 28 27 27 27 27 24 22 20 18 18 17 16 16 15 14 13 11 9 7 6 6 5 4 4 3 2 2 2 3 4 5 7 8 9 9 9 10 10 10 10 9 10 10 10 9 9 9 8 8 8 8 8 7 5 7 9 8 6 6 5 7 10 11 17 24
13 13 11 11 11 14 19 21 22 24 26 29 31 32 35 37 37 35 34 32 31 30 30 29 27 26 24 22 20 19 19 19 18 17 16 15 13 10 8 8 7 6 5 4 3 2 2 1 1 2 4 7 8 9 10 11 11 11 10 10 10 10 9 10 10 10 10 10 9 9 9 8 8 8 9 11 11 11 10 6 7 11 10 13 21
9 10 10 9 9 13 19 21 23 26 29 31 33 33 34 37 37 37 36 35 33 32 32 30 29 27 25 23 22 20 20 20 19 19 17 15 13 11 10 9 8 7 6 4 3 2 2 2 2 2 4 7 9 10 11 11 11 11 11 11 11 11 11 11 11 11 11 10 10 10 10 10 10 10 10 10 11 13 13 9 10 12 9 11 17
5 6 8 10 11 14 19 23 25 28 31 32 33 34 34 35 37 38 37 36 35 34 33 32 31 29 27 25 24 22 21 21 20 20 19 16 14 13 11 10 9 8 6 5 4 4 4 4 3 3 5 7 9 10 10 10 10 11 12 12 12 12 12 11 11 11 11 11 10 10 11 11 12 12 11 11 11 12 13 11 11 11 11 12 13
4 4 5 7 11 16 21 24 27 29 31 33 34 33 32 33 35 37 36 36 36 35 34 34 32 30 29 27 25 24 23 22 21 21 20 18 16 14 13 12 11 9 8 7 7 8 7 5 4 5 6 8 9 9 9 8 9 10 11 12 12 12 12 12 12 12 12 12 12 12 12 12 12 12 12 12 11 12 14 14 13 10 8 9 8
3 5 4 5 7 13 19 24 28 29 29 31 32 32 32 33 35 36 36 36 37 37 36 35 34 32 30 29 27 26 25 23 23 23 22 20 18 16 15 14 12 10 9 9 9 8 7 6 6 7 8 9 9 9 8 8 9 10 11 12 13 13 13 12 12 12 12 12 12 13 13 13 13 12 11 11 11 11 12 14 14 11 9 7 5
4 3 4 3 4 8 12 15 19 23 27 31 33 35 36 36 35 35 34 34 36 38 38 36 35 33 33 31 28 27 27 25 25 25 23 22 21 18 17 15 13 11 11 11 10 8 8 7 8 9 9 9 9 9 8 8 9 11 12 12 13 13 13 13 13 13 13 13 13 13 14 14 14 13 12 11 11 12 12 12 13 12 12 9 6
7 5 3 3 4 6 8 10 12 15 21 27 32 35 36 35 34 35 34 34 37 39 38 38 37 36 35 33 31 29 28 27 27 26 24 24 23 21 19 18 15 13 13 12 11 10 10 9 10 9 9 10 10 10 9 9 11 12 12 13 13 13 13 13 13 14 14 14 14 14 14 15 14 14 14 14 13 13 13 14 14 14 14 12 10
7 7 5 2 5 7 9 9 11 13 17 20 23 26 29 32 34 34 35 37 37 37 38 38 38 38 37 35 33 30 29 29 29 28 26 25 25 23 21 20 17 16 15 15 14 13 12 10 9 8 9 9 9 9 10 11 12 13 14 15 15 14 14 13 13 14 15 16 16 15 14 14 14 14 14 15 15 15 14 14 15 15 15 14 14
7 7 6 5 3 5 9 12 13 15 17 18 18 21 25 28 30 32 34 33 33 34 37 38 39 38 37 36 35 32 31 30 30 29 28 27 26 25 23 21 20 19 18 17 16 14 12 10 8 8 8 8 8 8 10 11 12 13 15 16 16 15 15 15 15 16 16 17 18 17 16 15 15 15 15 14 15 16 15 15 15 15 15 14 15
7 7 7 7 9 7 0 9 13 14 15 16 17 20 23 24 27 30 31 30 31 33 35 37 38 38 37 37 36 34 32 31 31 30 29 28 27 26 24 22 21 21 19 18 16 13 11 9 7 7 7 7 7 8 10 11 12 14 15 15 15 15 16 17 18 19 19 19 19 18 18 17 16 16 16 15 15 15 15 16 17 16 15 14 14
6 7 7 7 10 14 12 5 9 13 15 17 18 19 22 25 28 28 27 29 33 34 36 37 37 37 38 37 37 36 34 33 32 32 31 29 28 26 24 23 22 21 20 18 15 12 10 8 7 7 6 6 7 9 9 10 11 13 13 13 13 14 16 17 18 19 20 20 20 21 20 19 18 18 17 16 16 14 14 16 17 17 17 17 15
6 6 7 7 9 14 15 12 7 9 13 16 18 21 24 26 26 24 25 28 30 31 33 34 35 36 37 37 37 36 36 35 35 34 33 31 29 26 24 23 23 22 20 18 14 11 9 8 7 6 6 7 8 8 8 9 10 12 13 12 12 13 14 15 16 17 18 18 19 21 21 20 20 19 17 16 15 14 14 14 15 15 16 18 17
6 6 5 7 11 13 14 15 13 9 8 12 16 20 22 23 22 23 27 28 27 25 26 28 32 35 36 36 37 37 37 37 37 36 35 32 30 27 25 23 23 22 20 16 13 11 10 8 7 7 7 8 8 8 8 10 11 13 14 13 13 13 14 15 16 18 19 19 20 20 20 19 18 18 17 16 15 15 15 14 14 14 14 15 15
6 7 7 7 9 10 12 14 16 17 15 10 10 15 20 21 22 25 28 29 29 28 28 29 31 33 35 36 37 38 38 39 39 37 35 33 29 26 24 24 23 22 19 15 13 12 10 9 8 8 8 9 9 9 10 11 12 13 13 13 13 14 15 17 19 20 22 23 23 23 22 19 18 18 19 19 19 18 18 17 16 17 16 15 16
6 7 6 5 6 8 11 15 17 18 20 19 15 10 13 19 23 26 28 30 31 31 32 34 34 34 36 37 38 38 39 40 39 37 34 31 28 25 24 24 23 21 17 15 13 11 10 9 9 9 9 10 10 10 11 12 13 13 13 14 15 16 18 19 21 23 24 25 25 25 24 23 22 22 22 22 22 21 20 20 20 20 20 20 20
5 6 6 6 7 7 9 13 16 18 20 22 22 19 11 12 19 23 26 29 33 33 34 36 36 35 36 38 39 39 39 39 37 35 32 29 27 25 24 23 22 19 16 15 13 11 10 10 10 10 10 10 10 10 11 12 13 13 14 15 17 18 20 21 23 24 24 24 24 23 23 24 24 24 24 23 23 22 21 22 21 21 22 22 21
6 6 7 7 7 6 7 11 15 18 20 22 23 23 20 16 15 18 21 25 29 31 34 37 37 36 37 39 40 39 38 37 35 32 30 28 26 25 24 22 20 18 16 14 12 11 11 10 10 10 10 9 10 10 11 12 12 14 15 17 19 20 22 23 24 24 23 23 22 22 22 23 23 24 24 23 23 23 23 24 24 23 23 23 22
7 7 6 5 5 5 7 10 14 15 18 20 21 23 23 22 21 19 18 20 23 27 30 32 32 32 35 38 40 39 37 34 33 31 29 28 26 24 23 21 19 17 15 13 12 12 11 11 10 10 9 9 9 9 10 11 12 14 17 18 20 22 23 24 24 24 24 23 23 23 23 23 23 23 23 23 23 24 24 26 26 24 23 23 23
6 6 6 5 4 4 5 8 12 13 15 17 19 21 22 22 22 21 20 19 19 24 27 27 26 26 27 28 27 29 33 33 32 31 29 28 26 23 22 20 19 17 15 14 13 12 11 11 10 9 8 7 7 8 8 11 13 15 18 19 21 22 23 24 25 25 25 24 24 24 25 24 24 24 24 24 24 25 25 26 26 26 25 24 23
6 6 6 5 5 5 5 7 10 12 13 15 17 20 20 21 22 22 22 20 18 22 26 27 29 30 30 27 21 21 27 30 31 31 29 27 25 23 22 20 18 16 15 14 13 12 11 10 8 7 6 5 6 8 10 13 16 18 19 21 22 23 24 24 24 25 25 25 25 26 26 26 26 26 26 26 26 26 26 26 26 26 26 25 25
6 6 6 6 6 7 8 10 14 16 17 17 18 19 19 20 21 22 23 22 19 21 25 28 29 29 29 28 23 22 25 27 29 30 29 27 26 24 22 20 18 17 15 14 13 12 10 9 7 6 5 5 7 10 13 16 18 19 20 21 22 24 24 25 25 26 27 27 27 27 28 28 28 28 28 28 27 27 27 27 27 27 27 28 27
6 7 6 6 7 9 12 15 19 21 23 23 22 20 21 22 23 23 24 24 22 21 24 27 28 27 27 26 25 25 27 28 29 30 29 28 27 25 22 19 18 16 15 14 13 11 10 8 6 4 4 6 9 12 14 17 19 20 20 20 22 24 25 26 27 27 28 28 28 28 28 28 28 27 27 27 27 27 27 27 28 28 29 29 29
6 6 6 6 9 13 17 19 21 24 26 28 27 25 24 25 25 24 24 25 25 24 24 27 28 28 27 27 26 27 29 30 29 29 29 28 26 23 21 19 17 16 15 14 13 11 9 6 4 3 5 8 10 12 16 19 22 23 23 22 23 25 26 28 28 28 28 28 28 28 29 29 28 26 26 26 26 27 27 28 29 29 29 30 29
7 6 6 7 11 15 19 22 24 26 28 30 31 30 29 28 27 26 25 25 26 25 25 27 29 28 27 28 28 29 29 25 22 22 24 24 22 20 18 16 15 15 14 13 11 9 7 3 2 4 7 9 11 14 18 22 25 25 25 24 25 26 27 28 29 29 29 29 28 28 28 29 28 27 25 25 25 26 28 29 30 30 30 31 31
7 7 8 11 14 16 20 23 26 28 29 30 31 31 30 30 29 28 27 25 25 25 26 27 29 29 28 29 30 30 28 25 23 23 23 22 20 18 16 16 15 14 12 10 8 6 3 1 3 6 9 10 12 15 19 24 27 27 26 26 27 27 28 28 29 29 29 30 29 29 29 28 28 28 27 26 26 27 28 30 31 32 31 32 33
10 12 13 16 19 20 22 25 26 28 28 30 31 31 29 29 29 28 28 27 25 25 26 26 28 29 28 29 30 30 29 29 30 28 24 21 20 19 17 15 14 12 10 8 5 3 1 3 5 7 9 11 13 16 20 25 28 28 26 26 27 28 28 28 29 29 29 30 30 29 28 28 29 28 28 28 27 27 29 30 31 32 31 32 33
13 15 16 18 20 22 24 24 24 25 27 28 29 30 28 27 27 27 28 28 26 25 25 24 25 27 28 29 30 32 32 32 30 27 24 21 20 19 16 13 11 10 8 6 4 2 4 6 8 8 9 11 14 17 22 26 29 29 27 26 27 28 28 28 29 29 29 29 29 28 27 28 29 29 28 28 27 27 29 30 30 30 31 32 32
14 14 16 19 21 23 23 23 22 24 25 24 25 27 26 25 26 26 26 27 27 25 22 22 23 26 28 30 31 32 31 29 27 26 25 22 19 17 14 11 9 8 7 5 3 3 5 7 9 10 10 12 15 19 24 28 30 30 27 27 28 28 28 28 29 28 28 27 27 27 28 28 30 31 31 31 30 30 31 32 30 30 31 31 31
15 16 18 20 21 21 21 21 22 24 24 22 21 22 23 24 26 26 26 27 26 22 19 21 25 28 31 34 35 33 30 28 27 26 23 19 17 15 13 10 8 6 5 4 1 3 6 8 10 11 11 13 16 21 26 29 31 30 28 27 27 28 28 28 28 28 28 29 29 29 30 30 32 33 33 33 33 33 34 34 33 31 32 32 31
16 18 21 22 21 19 19 20 22 23 22 20 19 19 21 24 25 26 28 28 23 18 20 25 28 31 31 31 32 31 29 28 27 24 21 18 16 14 11 9 7 5 3 2 1 4 7 9 11 11 13 15 17 22 27 30 31 30 28 27 27 28 28 29 30 30 31 33 33 33 33 33 33 34 34 34 34 34 34 35 35 34 34 33 32
16 19 21 22 21 19 18 19 20 20 20 20 18 19 22 24 25 27 28 23 19 22 27 30 32 33 32 30 29 28 27 26 24 22 20 18 14 12 9 7 5 3 2 2 4 6 8 10 12 13 15 17 19 22 27 31 32 31 29 27 27 28 28 29 31 33 33 33 34 35 35 35 35 35 35 34 35 35 35 36 37 36 35 34 34
17 19 21 21 19 19 19 19 19 19 20 19 17 19 22 22 22 22 19 17 24 30 32 34 35 35 33 32 30 29 26 24 23 21 19 16 13 10 8 6 4 3 3 4 5 7 10 12 14 15 17 19 20 23 28 31 33 32 31 29 27 28 28 29 32 34 34 35 36 37 37 36 36 36 36 36 37 36 36 38 38 38 37 37 37
19 21 23 21 18 18 18 18 18 19 19 15 13 13 12 9 7 9 16 24 29 32 34 37 37 35 33 33 31 29 27 25 23 21 18 15 12 9 7 5 5 5 5 5 6 8 11 13 15 17 19 20 21 24 29 32 34 33 31 29 28 29 29 30 32 34 35 36 37 38 38 38 39 39 39 39 39 39 39 40 40 40 39 37 36
21 23 23 21 19 18 17 15 16 19 15 9 4 3 3 5 7 15 24 28 30 34 37 38 36 33 33 33 32 29 27 25 23 21 18 15 11 8 6 6 6 7 6 7 8 10 13 15 16 18 20 22 23 26 30 33 33 31 30 30 29 29 30 31 32 34 35 36 38 40 41 41 42 42 42 41 41 41 41 41 42 41 40 38 36
20 22 23 22 19 18 16 13 16 18 9 1 4 6 9 12 14 21 29 33 34 36 35 33 32 32 32 33 31 28 25 22 20 18 16 12 9 7 5 5 6 7 7 8 10 12 15 16 17 19 21 23 24 26 30 32 30 29 30 30 30 30 30 30 32 33 35 37 38 39 39 40 39 40 39 39 39 38 38 39 39 39 39 38 36
19 22 23 22 18 16 14 10 14 14 3 6 8 10 14 16 18 22 28 32 34 33 31 29 31 32 32 31 29 26 22 20 18 15 12 9 7 5 4 4 5 6 7 9 11 14 16 18 19 20 21 23 24 26 30 31 29 30 32 32 30 30 30 31 31 33 34 35 35 37 37 38 38 39 39 39 39 39 38 38 37 37 37 37 36
21 23 22 19 17 15 11 9 12 9 2 9 12 14 15 17 20 24 24 24 25 27 29 29 30 31 31 29 27 23 20 18 17 14 10 7 5 4 4 4 3 4 7 9 12 14 16 18 19 20 21 22 24 27 29 30 30 32 33 32 31 31 31 31 32 33 34 34 35 35 36 36 35 35 36 36 36 36 36 36 36 36 36 36 36
20 21 20 17 16 15 11 8 12 7 8 14 14 15 17 19 21 22 20 19 20 23 25 26 27 27 27 26 24 21 19 18 16 13 9 6 5 4 3 1 1 4 6 10 13 16 17 18 19 20 21 22 24 27 30 31 32 34 33 32 31 32 32 32 32 32 33 33 32 30 30 29 28 28 28 29 29 29 30 31 33 35 35 34 34
19 19 18 17 16 16 13 9 9 6 15 19 17 17 20 21 19 18 17 20 23 24 23 23 24 24 23 23 22 20 19 18 15 11 8 7 5 4 2 2 4 5 7 10 13 15 17 18 19 21 21 22 25 29 32 33 34 33 32 31 31 32 32 32 31 29 29 28 27 25 24 24 24 23 23 23 24 25 25 27 29 31 32 32 33
18 16 16 16 14 14 11 6 6 13 21 22 19 17 18 19 19 18 20 22 24 24 22 21 22 23 21 20 19 19 18 17 13 9 8 7 6 4 3 3 4 5 7 8 10 12 13 15 18 21 23 24 26 29 32 34 34 32 30 30 31 32 31 29 27 26 26 24 22 21 21 21 21 21 21 22 23 23 23 25 26 27 28 30 30
Wind_Direction
183 190 193 190 186 182 180 179 179 181 182 183 182 183 184 181 179 176 171 168 162 155 152 153 153 150 146 145 137 127 127 132 142 156 175 193 201 206 205 251 294 290 251 212 136 90 38 45 50 42 35 63 88 74 294 271 249 241 250 263 269 269 265 258 263 275 277 284 295 291 281 267 253 250 250 247 248 252 253 249 245 244 244 243 244
168 194 199 193 188 183 181 180 181 182 181 183 184 183 183 184 183 178 173 170 166 162 159 157 159 159 156 154 146 135 128 134 149 158 182 204 207 205 182 18 338 47 87 116 123 121 104 61 60 65 64 66 62 55 46 26 295 253 265 285 292 302 295 266 256 266 286 316 325 313 295 273 258 252 251 250 251 252 250 250 249 247 245 243 244
183 198 201 196 189 184 184 183 185 185 182 184 185 181 181 182 182 178 174 171 169 169 167 165 167 167 163 157 149 140 131 133 141 139 144 164 174 158 111 95 111 102 87 95 101 97 100 90 74 74 74 71 65 62 61 52 41 25 360 337 330 341 333 313 290 270 279 319 318 301 307 296 275 267 261 255 253 253 250 248 249 250 251 248 245
192 200 201 194 188 186 189 188 187 186 183 184 183 180 179 179 178 176 176 174 173 176 177 176 176 174 167 158 152 146 141 141 141 142 145 149 152 146 121 106 140 173 120 107 109 98 93 87 76 75 74 72 69 66 63 57 51 49 44 30 16 8 340 328 339 318 290 281 269 256 297 316 272 320 315 276 255 251 249 246 246 249 253 251 246
193 196 195 193 191 190 191 190 188 187 186 186 184 180 179 179 177 177 177 177 178 181 183 184 181 174 167 159 155 151 149 152 155 159 167 170 164 158 123 96 119 166 163 141 140 111 88 79 68 69 70 66 63 61 59 56 52 49 49 46 42 37 13 353 14 20 3 312 277 249 292 289 224 350 346 306 275 265 253 246 246 249 253 254 251
200 198 195 197 194 188 190 191 189 190 190 188 185 182 180 180 179 180 180 180 182 186 188 190 186 179 174 170 168 164 164 166 167 166 169 175 171 163 124 98 98 117 140 145 156 216 334 29 46 55 60 57 53 54 53 46 40 38 38 40 42 41 35 30 26 18 14 3 346 319 291 287 280 342 354 310 309 304 281 260 252 255 260 260 259
204 205 202 199 188 182 190 195 194 193 191 188 187 185 184 183 182 183 184 183 185 190 195 197 192 188 187 186 184 184 179 173 171 171 175 191 190 176 149 121 105 103 114 116 107 111 355 326 335 25 41 42 34 31 36 32 26 23 22 26 31 32 36 40 30 16 15 15 3 349 325 304 284 285 270 265 312 308 308 307 295 289 285 272 269
195 201 205 201 189 186 193 198 197 194 190 188 188 188 187 186 185 187 187 188 190 195 199 200 196 195 195 195 195 197 189 175 173 176 181 196 198 186 166 146 132 118 119 115 105 100 72 62 53 50 52 46 39 33 33 30 25 21 15 17 19 20 27 33 29 20 17 13 4 358 348 333 311 287 273 271 275 285 306 304 297 302 306 292 284
193 197 201 198 192 195 198 197 195 192 190 190 189 189 189 188 188 190 192 194 195 196 199 200 200 200 200 201 202 202 195 183 181 185 190 194 190 186 175 154 141 131 127 119 106 92 72 68 62 65 66 56 50 44 37 29 24 21 14 9 7 9 14 16 16 14 15 15 10 3 354 344 336 322 298 277 261 273 300 301 299 307 307 297 292
197 199 199 198 198 198 198 194 192 192 192 191 190 190 190 190 192 193 196 197 196 196 198 199 201 203 206 208 207 204 198 192 190 193 195 194 189 185 179 164 150 136 127 117 112 97 77 70 63 63 56 43 35 27 24 20 14 9 2 355 349 351 357 1 5 4 4 10 10 6 1 354 342 331 317 295 271 264 270 275 288 297 300 298 299
198 203 200 199 197 194 190 190 191 192 192 192 192 192 192 193 195 196 197 198 198 197 198 201 203 207 211 212 210 206 201 198 197 197 197 196 194 190 184 177 172 165 155 137 127 127 110 90 59 43 26 16 12 9 7 5 1 358 355 351 345 345 346 346 350 350 350 355 1 4 2 358 343 325 323 317 301 277 277 280 279 281 277 285 295
194 198 198 186 176 177 184 189 190 190 192 194 194 194 195 196 197 198 200 201 201 200 201 205 206 209 213 213 211 208 206 206 205 205 204 201 197 193 191 192 190 190 186 172 153 155 158 151 6 4 358 354 353 354 351 348 349 355 2 4 2 359 355 352 351 347 344 342 345 348 348 348 340 328 326 320 310 302 302 297 290 293 281 277 291
204 194 185 175 172 177 181 185 187 191 195 196 196 196 196 197 198 200 202 204 205 204 204 207 209 210 211 212 212 211 211 213 214 216 216 212 207 202 201 204 205 207 208 201 195 207 230 255 272 298 329 339 341 340 339 340 344 354 3 7 10 10 7 6 5 1 358 350 341 333 329 330 330 330 331 324 315 310 305 297 296 299 291 287 294
221 218 191 183 184 182 182 186 189 194 197 197 198 199 197 198 200 202 204 206 207 207 207 209 211 212 212 212 213 213 214 218 221 224 224 222 220 218 217 217 218 221 222 227 238 251 255 249 251 284 317 328 331 331 332 339 347 355 360 1 4 6 3 2 2 360 360 358 352 342 332 325 320 322 326 327 324 315 307 304 305 301 291 290 294
178 225 226 207 194 185 184 189 193 197 198 198 199 200 199 199 201 203 205 206 207 208 209 211 213 214 213 213 214 216 218 221 224 229 230 229 229 229 228 227 229 227 224 233 244 248 250 247 259 291 310 315 321 325 329 338 346 352 355 352 353 353 351 351 350 349 349 349 347 343 339 336 329 321 317 319 323 318 310 306 305 303 296 291 290
135 177 215 244 224 202 194 193 196 198 198 199 201 201 201 202 203 205 206 206 207 208 210 212 214 215 215 215 215 217 220 223 225 229 232 233 234 235 234 232 234 229 225 231 237 238 245 257 277 296 307 313 318 322 328 337 340 344 345 344 346 346 344 345 344 344 344 343 341 337 334 334 336 333 322 317 319 320 317 312 306 300 296 295 292
35 143 175 199 233 234 225 213 207 202 198 200 203 204 205 204 204 205 206 206 207 209 210 212 213 215 216 217 217 218 220 223 225 228 232 234 236 238 237 234 234 231 229 232 233 236 247 266 284 296 306 314 321 323 327 332 333 335 337 338 341 340 341 342 343 342 342 339 337 334 331 329 331 332 327 323 322 319 317 316 312 304 295 290 291
36 46 97 155 188 224 243 244 237 224 212 209 208 208 208 207 207 206 205 207 209 209 210 212 213 215 216 217 218 219 221 224 226 229 232 234 235 237 235 233 233 231 232 232 233 240 252 267 281 295 307 313 317 320 325 329 328 328 331 334 336 334 333 335 336 337 336 335 332 328 326 325 327 328 323 320 318 316 314 311 311 310 304 295 287
31 38 44 80 173 196 219 234 240 235 229 227 223 218 215 212 211 210 209 210 211 210 210 212 215 216 217 217 218 219 221 224 226 229 232 233 234 234 232 231 230 229 231 232 234 242 253 265 277 293 305 311 314 317 322 324 323 324 328 331 332 329 326 326 330 331 330 329 327 325 324 323 325 327 322 317 313 312 311 309 307 307 306 302 297
18 27 25 26 89 173 201 214 228 233 233 234 232 229 226 221 218 215 214 213 213 212 212 213 215 216 217 217 218 219 221 223 226 228 230 232 232 232 230 229 227 227 228 228 232 240 249 259 275 291 299 305 308 312 315 316 318 322 326 328 329 326 322 322 324 326 327 325 320 319 321 321 323 325 322 320 316 311 309 307 306 305 303 302 302
10 14 13 12 23 25 287 213 220 226 232 236 234 232 231 230 228 224 219 216 216 216 216 216 216 216 217 217 218 218 220 222 225 227 229 230 229 228 228 226 224 224 224 224 227 235 243 252 268 282 290 295 298 302 307 312 316 320 323 323 324 322 319 321 323 324 327 327 322 317 316 317 319 318 317 317 316 315 312 306 302 301 297 297 300
18 15 18 15 14 12 7 316 237 227 227 231 233 232 230 230 231 230 227 223 220 219 219 218 218 217 217 219 219 218 219 221 222 224 226 226 226 225 224 222 219 218 218 219 223 229 234 243 256 266 276 282 287 294 301 309 313 315 317 319 322 321 318 318 320 321 323 323 322 318 316 317 317 314 312 311 311 312 312 309 305 300 294 294 295
45 36 29 26 22 19 19 10 326 257 237 230 226 226 228 229 229 230 232 232 229 226 224 220 219 219 220 220 220 219 219 220 221 222 223 223 223 221 220 218 215 212 212 214 219 222 224 233 243 250 261 270 277 283 290 296 300 304 306 308 310 310 310 312 314 316 318 317 317 315 314 314 315 312 308 306 306 305 306 307 308 305 299 298 298
49 47 34 27 25 21 20 17 6 340 288 251 234 227 225 226 226 226 230 234 234 234 234 228 223 223 222 221 220 220 219 219 220 221 222 221 219 216 215 214 211 208 208 210 214 215 218 225 232 241 253 259 262 264 272 284 292 297 299 299 301 303 306 310 314 316 317 316 314 311 310 311 313 311 307 305 305 304 303 304 304 306 307 305 306
36 39 32 28 24 16 10 8 7 4 356 329 275 245 231 225 224 225 228 231 231 230 233 234 231 227 224 223 222 221 219 219 221 220 220 218 214 212 211 210 206 205 206 208 209 210 213 221 230 240 247 248 253 262 274 287 295 296 295 295 298 303 307 310 311 313 313 312 309 305 302 303 305 304 302 302 303 304 302 301 299 300 302 305 307
26 28 28 33 34 21 10 8 7 6 5 2 352 314 255 236 231 228 228 230 232 230 229 231 231 228 226 225 224 221 220 220 220 218 216 213 209 207 205 204 203 203 205 206 206 208 213 222 230 236 240 246 255 269 283 292 294 292 291 294 299 304 307 309 309 310 310 308 304 299 295 293 294 295 297 297 299 300 299 297 296 296 297 300 302
22 23 20 25 33 22 9 7 6 4 3 3 3 358 329 273 253 244 236 230 229 229 228 229 230 228 227 227 225 223 221 220 218 216 212 208 203 202 201 200 201 203 204 204 205 209 215 223 230 234 239 249 263 278 288 291 290 290 293 299 304 308 309 309 308 308 307 305 301 298 296 293 290 290 292 293 294 296 295 293 293 293 294 295 297
17 22 18 17 16 4 1 4 3 0 359 357 357 356 352 336 307 280 258 242 233 230 228 229 229 228 227 228 228 226 222 219 217 214 208 203 199 198 199 199 201 203 205 206 206 209 215 221 228 235 244 257 271 280 284 286 291 299 306 309 311 311 310 309 308 307 306 303 299 297 296 296 294 292 290 290 289 289 290 289 289 290 291 291 290
13 11 4 6 1 348 348 352 354 354 351 349 347 346 345 342 335 321 296 266 248 239 236 234 233 231 231 231 229 224 220 216 213 209 203 200 197 196 197 199 201 204 205 204 205 209 215 221 227 237 248 259 269 275 284 296 307 312 314 314 313 311 309 308 307 305 303 300 297 296 295 295 295 294 291 289 286 284 284 284 286 287 286 286 285
359 348 339 340 338 331 330 335 339 341 340 338 336 336 335 332 330 328 318 299 271 251 243 240 241 241 242 245 240 226 217 212 207 203 199 196 195 194 195 198 201 203 202 200 203 210 218 225 230 236 243 252 266 281 297 309 316 318 316 314 311 308 306 304 302 300 298 296 295 293 293 293 292 290 289 287 287 285 283 282 282 282 282 281 280
337 327 323 323 324 328 328 324 323 324 325 325 324 324 323 322 322 319 315 310 289 261 248 241 239 237 238 246 249 232 219 212 203 199 195 192 191 190 191 195 198 200 200 201 206 211 215 220 221 222 232 253 277 296 308 312 315 315 313 311 307 304 302 300 298 296 295 295 294 292 291 290 289 287 286 286 286 286 284 283 281 279 278 277 275
329 321 318 324 328 330 327 323 323 322 320 318 318 317 313 311 312 312 310 309 293 268 253 244 239 235 232 234 233 223 217 211 202 196 192 189 187 185 186 192 196 199 201 202 204 204 201 200 201 209 238 273 296 309 317 320 320 319 315 310 305 302 300 298 297 296 295 295 294 292 290 288 286 285 285 284 284 283 282 281 280 279 277 276 273
318 313 313 319 319 319 318 318 320 320 318 318 317 312 308 305 304 305 306 304 295 275 256 245 238 233 229 226 220 213 210 208 203 197 191 185 183 182 184 190 195 198 200 197 191 187 182 184 198 224 269 302 319 326 329 331 331 328 323 315 308 303 300 297 296 295 295 294 292 291 289 286 284 283 282 282 281 281 281 280 279 279 277 276 274
302 301 300 302 306 310 313 314 315 315 315 316 314 310 308 305 303 301 300 298 295 283 263 247 238 230 224 218 212 207 204 203 201 195 188 181 179 179 181 188 193 193 190 183 176 174 174 184 214 269 311 325 332 334 337 339 338 334 327 319 311 305 300 297 295 294 293 292 290 289 287 285 284 283 281 280 280 281 282 281 280 279 277 276 275
301 297 290 295 302 306 310 312 314 314 312 311 310 309 307 304 301 299 296 293 291 285 268 251 239 230 221 212 207 202 198 193 187 183 180 176 175 177 178 181 184 181 177 173 170 172 176 189 270 321 330 333 336 338 341 343 340 335 327 318 311 306 301 297 294 293 292 290 289 288 285 284 284 282 280 279 278 279 280 280 279 278 277 276 274
283 280 283 294 300 303 306 308 308 309 307 305 303 303 302 300 299 298 295 292 287 281 268 251 237 227 218 208 200 193 186 178 170 171 174 172 170 170 169 169 167 164 163 162 163 170 179 261 325 334 336 336 336 338 341 342 340 335 326 317 311 307 302 298 295 293 291 290 288 286 284 283 282 281 280 279 277 277 277 276 276 276 277 275 273
272 277 284 293 299 303 304 304 304 304 303 301 301 300 297 294 294 295 295 293 285 275 264 248 232 221 212 201 191 181 172 167 166 168 169 165 161 159 157 158 157 153 151 154 157 155 25 346 336 337 337 332 331 334 338 339 338 334 325 317 311 307 302 298 295 293 291 288 287 284 283 282 282 282 281 280 278 275 273 273 274 275 275 274 272
275 282 287 292 299 302 302 303 301 300 301 302 301 298 293 290 290 290 291 289 281 272 260 241 223 211 200 189 181 171 162 159 159 158 155 151 149 147 146 148 149 145 145 147 133 63 14 351 337 332 327 323 325 331 336 337 337 333 325 316 311 306 302 299 296 294 291 289 286 284 283 281 281 281 281 280 278 275 272 271 272 274 274 272 271
281 282 285 291 298 300 301 301 297 296 301 306 303 296 290 287 288 288 286 282 277 269 252 226 206 194 183 175 168 159 151 148 147 144 143 141 139 137 137 139 138 134 136 141 115 27 356 340 330 323 318 317 322 329 334 336 335 332 325 316 311 306 302 300 298 296 293 290 287 285 284 282 281 281 280 279 277 273 272 272 272 272 271 270 271
294 294 295 295 296 296 296 296 295 296 300 305 306 299 289 286 288 286 279 274 271 260 231 203 186 176 169 164 158 151 145 143 142 139 137 136 135 134 134 134 131 126 131 142 110 348 332 325 321 315 311 313 320 329 335 336 335 330 324 318 311 305 302 300 300 297 295 292 289 287 285 283 282 281 279 278 277 273 272 272 271 268 266 268 272
295 301 303 298 293 291 291 294 301 304 303 304 306 299 290 289 286 278 273 271 260 229 193 174 164 156 149 144 142 143 143 143 142 137 132 130 129 128 129 131 131 134 143 160 302 311 309 310 311 310 308 309 317 328 335 336 334 330 325 319 311 304 301 300 298 296 293 291 289 287 285 283 282 281 279 277 276 274 272 271 268 264 265 268 271
298 303 304 299 294 293 293 299 309 311 308 308 309 302 295 290 278 269 267 259 224 185 165 153 143 137 132 128 131 137 139 136 134 129 125 124 123 122 123 127 134 144 179 246 285 295 300 307 310 310 306 304 312 326 334 336 335 330 325 320 311 304 301 299 296 293 291 289 287 286 285 285 283 281 280 278 276 274 273 270 267 265 266 268 269
305 307 306 302 295 292 295 304 313 317 313 312 312 307 300 289 274 262 246 206 173 159 149 139 131 129 131 133 136 138 134 128 124 122 121 122 126 129 131 139 156 184 228 257 286 301 305 307 307 305 302 302 310 325 333 335 335 331 325 319 311 305 302 297 292 289 288 288 287 286 286 286 285 283 281 279 277 274 272 269 268 267 267 266 266
304 304 305 304 295 288 294 305 318 327 324 316 311 310 307 297 261 209 173 157 151 146 139 132 129 131 136 137 136 133 129 124 121 121 124 127 132 139 151 170 194 217 239 263 295 308 305 303 300 298 300 305 314 325 332 334 333 330 324 317 311 304 300 295 290 289 288 288 288 288 288 288 287 285 283 281 278 275 272 270 268 266 265 263 262
301 300 302 303 296 287 288 301 324 336 332 315 308 348 49 82 116 137 138 135 133 131 128 129 133 137 137 134 131 128 126 123 121 119 121 127 136 146 162 191 216 233 250 273 294 302 300 298 296 296 302 310 317 324 328 330 329 326 321 315 309 304 299 295 292 290 289 290 290 290 290 290 288 286 284 281 278 274 272 269 267 265 263 260 256
298 298 300 302 296 285 279 295 331 342 338 193 129 105 112 114 116 122 125 125 124 123 125 130 136 137 134 130 128 125 123 123 122 118 116 120 131 145 164 197 224 242 259 276 289 298 302 303 301 300 303 308 313 318 322 323 323 322 320 316 312 307 303 300 296 294 294 294 293 292 291 290 288 286 283 279 276 273 271 269 267 264 260 256 252
293 295 299 299 291 279 274 298 336 346 355 141 126 123 132 131 124 122 124 126 128 128 132 138 138 137 137 134 131 130 130 131 131 128 122 119 123 138 171 205 229 254 271 284 299 308 310 308 303 299 298 301 305 312 317 318 320 322 322 320 316 312 308 305 302 300 298 297 295 294 293 290 287 285 282 278 275 272 269 266 263 260 256 252 248
294 295 298 295 283 272 272 306 330 332 157 137 123 125 136 137 134 133 134 137 141 142 145 146 145 144 143 140 137 138 141 143 141 134 127 129 141 155 180 208 240 281 300 311 315 312 309 305 299 293 292 294 299 309 315 318 320 323 324 322 318 314 311 309 306 304 303 301 299 297 295 292 289 287 284 280 276 271 267 263 260 257 253 250 247
293 296 297 294 282 268 261 296 316 296 172 150 139 136 139 141 144 149 153 153 150 147 145 144 143 143 143 143 145 149 151 151 146 137 129 135 150 161 174 199 325 334 328 320 311 305 305 304 297 293 291 290 296 309 318 320 322 324 325 323 320 317 314 312 310 309 308 305 301 297 294 292 290 287 283 281 277 273 268 264 260 256 252 249 245
294 297 298 295 282 262 252 275 292 229 167 162 165 160 153 155 162 166 161 151 143 142 143 144 144 145 148 151 154 155 152 146 139 137 143 147 145 143 125 63 25 358 333 318 309 307 309 306 297 296 298 299 303 313 320 322 324 326 327 326 323 321 320 319 317 317 313 307 301 296 294 293 291 289 286 284 280 276 270 265 261 256 250 245 241
294 298 301 298 283 259 252 259 223 179 164 166 177 178 170 173 175 166 157 154 152 151 151 150 148 150 155 158 157 153 148 141 135 137 149 152 145 129 94 52 16 347 333 328 327 327 327 317 304 300 304 307 311 317 322 326 329 330 330 329 327 326 326 326 324 321 314 305 300 298 296 296 295 293 290 289 286 282 275 269 265 258 250 243 239
Height
774 776 777 778 779 780 781 783 784 786 787 788 789 791 794 796 798 799 801 802 803 803 803 805 806 807 808 810 810 811 812 812 813 813 813 813 814 814 814 814 814 814 814 813 813 813 813 813 813 813 812 812 812 813 813 813 814 814 814 816 818 820 820 821 822 822 821 821 820 819 819 819 820 820 820 820 821 822 822 823 824 824 825 825 826
776 777 778 779 780 780 781 782 783 784 786 787 788 790 793 795 797 799 800 802 803 803 803 804 806 807 808 809 810 811 812 812 813 813 813 813 813 814 814 814 814 814 814 813 813 813 813 814 814 813 812 812 812 813 814 813 813 814 815 816 818 820 820 820 821 821 821 822 822 820 818 818 818 818 818 819 819 820 820 821 821 822 822 823 824
776 776 777 777 779 780 780 781 782 783 785 787 788 790 792 795 797 799 800 801 802 803 804 804 805 807 808 809 810 811 812 813 813 813 813 813 813 814 815 815 815 814 814 814 813 813 814 814 814 814 814 813 813 814 814 813 814 815 816 817 818 819 820 820 821 820 821 822 824 823 820 819 818 817 817 817 817 818 818 819 819 820 820 821 823
775 774 775 777 778 779 779 780 781 783 785 786 787 789 791 794 796 798 799 800 802 803 805 805 805 807 808 809 810 811 812 813 813 813 813 813 814 814 815 815 815 815 814 814 814 813 814 814 814 814 814 814 814 814 814 815 815 816 817 818 818 819 820 821 821 821 821 822 823 822 821 821 820 818 817 816 816 816 816 816 817 818 818 820 820
771 771 773 775 775 776 777 779 781 782 783 784 786 787 790 792 795 797 799 800 801 803 804 805 805 806 808 809 810 811 812 813 813 813 813 813 814 814 815 815 815 815 815 814 814 814 814 814 814 814 815 815 815 815 816 816 817 817 818 818 818 819 819 820 821 821 821 821 821 821 822 822 821 820 819 816 814 815 815 815 815 816 817 818 818
769 768 769 770 771 774 777 778 779 779 781 783 785 786 788 791 794 796 798 799 801 802 804 805 805 805 806 808 809 810 811 812 813 813 813 813 814 814 815 815 816 815 815 815 814 814 814 814 814 815 815 816 816 816 817 817 817 818 818 818 818 819 819 819 819 819 820 820 819 820 821 821 820 820 821 819 815 814 814 814 815 815 816 816 817
766 767 767 768 770 773 775 775 775 776 779 782 785 787 788 791 793 795 797 798 800 801 803 804 805 805 805 807 808 809 810 811 812 813 813 813 814 815 815 816 816 816 816 815 815 814 814 814 814 815 815 816 816 817 817 817 817 818 818 818 818 819 819 819 819 819 819 819 819 819 819 820 820 820 821 821 819 816 814 814 815 816 816 816 816
762 763 764 766 768 770 770 770 772 775 778 782 784 786 789 791 793 795 797 798 799 800 802 803 804 804 805 806 807 809 810 811 812 812 813 813 814 815 815 816 816 816 816 816 816 815 815 815 815 815 816 816 817 817 817 818 818 818 818 818 818 818 819 819 820 820 819 819 819 819 819 819 820 820 820 821 821 819 816 815 814 815 815 815 815
756 757 759 761 764 765 765 767 770 774 777 779 782 785 788 790 792 795 796 797 798 799 801 802 803 804 804 805 806 808 810 811 811 812 813 813 814 814 815 816 816 816 817 817 817 817 816 816 816 816 816 817 817 818 818 818 818 818 818 818 818 819 819 819 820 820 820 820 820 819 819 819 819 820 820 819 820 820 819 817 815 814 813 813 814
752 752 754 756 758 760 763 767 770 773 775 778 781 784 787 789 791 793 794 796 797 798 799 801 802 803 804 804 805 807 809 810 811 812 812 813 814 814 814 815 816 816 817 817 818 818 817 817 817 817 817 817 818 818 818 819 819 819 819 819 819 819 819 819 820 820 820 820 820 820 819 819 819 819 819 819 819 819 818 817 816 816 814 811 812
749 750 751 754 758 762 766 768 770 773 776 778 780 782 785 787 789 790 792 794 795 796 798 799 800 802 802 803 804 806 807 809 810 810 811 812 813 814 814 815 815 816 817 818 818 818 818 818 818 818 818 818 818 818 818 819 819 819 819 819 819 819 819 819 819 819 819 819 819 820 820 820 820 820 820 819 819 818 818 817 816 816 815 812 810
746 748 751 756 760 763 766 768 771 773 775 777 779 780 783 784 787 788 790 792 793 794 796 797 799 800 801 802 803 805 806 807 808 809 810 811 812 813 814 814 815 816 817 817 818 819 819 819 819 818 818 818 818 818 818 818 818 818 818 818 818 818 818 818 818 818 818 818 818 819 819 819 820 820 820 820 819 819 818 816 815 815 813 811 810
747 748 750 755 758 759 762 765 768 770 771 773 775 777 780 782 784 786 787 789 791 792 794 795 797 798 799 801 802 803 805 806 807 808 809 810 811 812 813 814 814 815 816 817 818 818 819 819 819 819 819 818 818 818 818 817 817 817 817 817 817 817 817 817 817 817 817 817 817 817 817 818 818 818 819 819 819 819 818 816 814 813 812 810 809
751 751 751 752 753 756 759 762 764 766 767 770 773 775 777 780 782 783 785 787 789 791 793 794 795 796 798 799 801 802 803 805 806 807 808 809 810 811 812 813 814 814 815 816 817 818 818 819 819 819 819 819 818 818 818 817 817 816 816 816 816 816 816 816 816 816 816 816 816 816 816 816 816 817 817 817 817 817 816 815 813 812 810 808 808
751 753 754 753 753 754 756 759 761 763 765 767 770 772 775 778 779 781 783 785 788 790 792 793 794 795 797 798 799 801 802 803 805 806 807 808 809 810 811 812 813 814 814 815 816 816 817 818 818 818 819 819 818 818 818 817 817 816 816 816 816 816 816 815 815 815 815 815 815 815 815 815 816 815 815 815 815 815 815 814 813 812 810 808 806
751 752 755 756 757 757 756 757 758 760 763 766 768 770 772 774 777 778 780 782 785 787 789 791 793 794 795 796 798 799 801 802 803 805 806 807 808 809 810 811 812 813 813 814 815 815 816 816 817 817 817 817 817 817 817 817 817 817 816 816 816 815 815 815 815 814 814 814 814 814 814 814 814 814 814 814 813 813 813 813 813 812 811 808 806
754 753 754 756 759 760 760 760 760 760 762 763 765 767 768 770 773 776 779 781 783 784 786 788 791 792 794 795 796 797 799 800 801 803 804 805 807 808 809 810 811 812 812 813 814 814 815 815 815 816 816 816 816 816 816 816 816 816 816 816 816 815 815 814 814 814 813 813 813 812 812 812 812 812 812 812 812 811 811 811 811 811 811 809 806
757 755 755 756 757 760 762 763 764 764 764 764 764 765 766 769 771 773 776 778 779 781 783 786 788 789 791 792 794 795 796 798 799 801 803 804 805 806 807 808 809 811 811 812 813 813 814 814 814 814 814 814 814 814 815 815 815 815 815 815 815 815 815 814 814 813 813 812 812 812 811 811 811 810 810 810 810 810 809 809 809 809 809 808 807
758 757 756 756 756 758 760 762 764 765 766 767 768 768 769 769 770 771 773 774 776 778 781 783 784 785 788 789 791 793 794 796 797 799 801 802 803 804 805 807 808 809 810 811 812 812 813 813 814 814 814 814 814 813 813 813 813 814 814 813 814 813 813 813 813 813 813 812 811 811 810 810 809 809 809 808 808 808 807 807 807 807 807 806 806
759 757 757 756 755 756 757 759 762 763 765 767 768 770 770 770 771 771 771 773 776 777 778 780 781 783 785 787 789 790 792 793 795 797 798 799 801 802 803 805 807 808 809 809 810 811 812 813 813 813 813 813 813 813 813 813 813 813 812 812 812 812 811 812 812 812 812 811 810 810 809 809 808 808 807 807 806 806 806 805 805 805 805 804 804
761 759 758 756 755 756 756 758 760 761 764 765 766 768 769 771 772 771 771 773 774 775 776 777 779 780 782 784 786 787 789 790 792 794 795 797 798 800 801 803 805 806 807 808 809 810 811 812 812 812 813 813 813 813 813 812 812 812 812 811 811 811 810 810 810 810 810 810 809 808 808 808 807 806 806 805 804 804 803 803 803 802 802 802 802
764 763 760 759 758 758 758 759 760 760 761 762 764 766 767 768 770 771 773 772 771 772 773 775 777 778 779 781 783 784 786 787 789 790 792 793 795 797 799 801 802 804 805 806 808 809 810 811 811 811 812 812 812 812 812 812 811 811 811 811 810 810 809 809 808 808 808 807 807 806 806 806 805 805 804 803 803 802 802 801 801 800 800 800 800
766 764 762 762 761 761 761 761 762 761 761 761 762 763 764 765 767 770 772 772 772 772 773 774 775 776 777 779 780 782 783 784 785 786 788 789 792 794 796 798 800 802 803 805 806 807 808 809 810 810 811 811 811 811 811 811 811 810 810 810 809 809 808 808 807 807 806 806 805 804 804 803 803 802 802 801 801 800 800 799 798 798 798 797 797
765 765 764 763 762 763 763 763 763 763 762 762 761 761 762 763 765 767 768 769 771 774 776 776 776 775 776 777 778 779 780 781 782 782 784 786 788 791 793 796 798 799 801 803 804 805 806 807 808 808 809 809 810 810 810 810 810 809 809 809 808 808 807 807 806 806 805 805 804 803 802 801 801 800 799 799 798 798 797 797 796 795 795 795 794
766 766 766 765 764 764 765 765 765 764 764 764 763 762 761 761 762 763 764 765 767 770 773 774 775 774 774 774 775 776 777 777 778 779 780 783 785 788 791 793 795 797 799 801 802 803 804 805 806 806 807 808 808 809 809 809 809 808 808 807 807 807 806 806 805 805 804 804 803 802 801 801 800 798 797 797 796 795 795 794 794 793 793 792 792
766 766 767 767 766 766 766 766 765 765 765 764 763 763 762 761 761 760 761 763 764 766 767 768 769 770 770 771 771 772 773 773 775 776 778 781 783 786 788 791 793 795 797 799 800 801 802 803 804 805 805 806 807 807 807 807 807 807 806 806 806 805 805 804 803 803 802 801 801 800 799 799 798 797 796 795 794 793 792 792 791 790 790 790 789
767 767 767 767 766 767 768 768 766 766 765 764 763 762 762 762 761 761 761 761 761 763 763 763 764 764 766 767 767 767 769 771 773 775 777 779 781 783 786 789 791 793 795 797 798 799 801 801 802 803 804 805 805 806 806 806 806 805 805 804 804 803 802 801 801 800 799 799 798 797 796 796 795 795 794 793 792 791 790 789 788 788 787 787 786
768 768 768 768 768 769 769 768 768 767 766 765 764 763 762 762 761 761 761 761 761 761 761 760 760 760 761 762 763 764 766 768 771 774 776 778 780 782 784 787 789 791 793 794 796 797 799 799 800 801 802 803 804 804 804 804 804 804 803 802 802 801 800 799 798 797 796 795 795 794 794 793 792 792 791 790 790 789 788 786 786 786 785 784 784
770 770 770 770 770 770 770 769 769 768 767 766 765 763 762 761 760 760 760 760 761 761 760 760 759 759 759 759 759 760 762 765 768 771 774 777 779 781 784 786 788 790 791 793 794 796 797 797 798 799 800 801 802 802 803 803 803 802 801 800 800 799 797 796 795 794 793 792 791 791 790 790 789 788 788 787 787 786 785 784 783 783 782 781 781
772 771 771 771 771 771 771 770 769 768 767 766 765 763 762 761 760 759 758 758 759 759 759 759 759 760 761 761 762 762 762 762 765 768 771 774 777 780 782 785 787 789 790 791 792 794 795 796 797 798 799 800 800 801 801 801 800 800 799 798 797 796 795 794 792 791 790 789 788 787 787 786 786 785 784 784 783 783 782 781 780 780 780 779 778
773 772 771 770 770 770 770 769 768 767 766 765 764 763 762 761 759 758 757 757 757 756 756 756 755 756 758 759 762 765 765 763 763 765 768 771 774 777 780 784 786 788 789 790 791 792 793 794 795 796 797 798 798 799 798 798 798 798 797 796 795 794 792 791 790 788 787 785 785 784 783 783 782 781 781 780 779 779 778 777 777 776 776 776 775
772 771 770 770 769 768 767 766 765 764 763 763 762 761 760 759 758 757 756 755 755 754 754 753 753 753 754 755 757 762 765 765 764 764 766 769 771 774 778 781 784 787 788 788 789 790 791 792 794 795 796 796 796 797 796 796 796 795 795 793 792 791 789 788 787 786 784 783 781 780 779 779 778 777 777 776 775 774 774 773 772 772 772 772 772
772 771 770 769 768 767 766 765 763 762 760 760 759 758 757 756 755 754 753 753 752 751 751 751 750 751 751 752 754 757 760 763 764 764 764 766 769 772 775 779 782 785 786 787 787 788 789 790 792 793 794 794 795 795 794 794 793 793 792 791 789 788 787 785 784 783 782 780 779 777 776 774 774 774 773 773 772 770 770 769 768 767 767 767 767
772 771 770 769 768 766 765 764 762 761 759 757 756 755 754 753 752 751 751 750 749 748 748 748 747 748 748 749 751 753 756 758 761 764 765 766 769 771 773 777 781 783 784 785 786 786 787 789 790 792 792 792 793 793 792 792 791 790 789 788 786 785 783 782 781 780 779 777 776 774 772 771 770 770 770 769 768 767 766 765 763 762 762 761 761
771 770 769 768 767 766 764 762 761 759 757 755 753 752 751 749 748 748 747 747 747 746 745 745 744 745 746 747 748 751 753 755 759 765 768 769 770 772 774 777 779 781 782 783 784 785 786 787 788 790 790 790 790 790 790 790 789 788 787 785 783 781 779 778 777 776 775 773 772 771 769 768 767 766 766 766 765 765 763 761 759 758 757 756 756
770 769 768 767 766 765 763 761 760 758 756 753 751 749 748 746 745 744 743 743 744 743 742 742 742 742 743 745 746 748 751 753 758 764 768 769 769 771 774 777 779 781 781 782 783 784 785 786 787 787 787 788 788 788 788 787 786 785 784 782 780 778 775 773 772 771 770 769 768 767 766 764 763 762 763 763 762 761 759 757 755 753 752 751 749
769 767 767 766 764 764 762 760 758 756 754 752 749 747 745 743 742 742 740 740 740 739 738 738 739 740 741 743 744 746 748 751 755 760 764 766 767 769 772 776 778 780 780 781 782 783 784 785 785 785 785 785 786 786 785 785 784 783 781 778 776 773 771 769 767 766 765 764 764 763 762 761 759 758 759 758 759 758 755 753 751 749 747 745 743
767 765 765 764 763 762 760 758 756 754 752 750 747 745 743 741 739 739 738 737 735 735 735 736 737 738 740 742 744 744 746 749 753 757 761 764 767 769 772 775 777 778 778 779 781 782 783 783 783 783 783 783 783 783 783 782 781 780 777 775 772 769 766 764 762 761 760 759 759 759 759 757 755 754 755 754 754 754 751 749 747 745 743 740 739
765 764 763 762 760 759 757 756 754 752 750 748 746 744 742 739 737 737 736 734 732 732 733 734 735 737 739 741 743 744 746 749 753 757 761 765 768 770 773 775 777 776 776 777 779 780 781 782 782 781 781 781 781 781 781 779 778 776 774 772 769 765 762 759 758 756 755 755 755 754 754 753 751 750 750 749 750 749 747 745 744 742 738 734 735
763 762 761 760 758 757 755 753 751 748 747 746 744 742 740 738 736 734 733 731 730 730 731 732 734 736 738 740 741 743 746 751 755 758 762 765 768 770 772 774 775 775 775 775 777 779 780 781 781 780 779 779 779 778 778 777 775 773 771 768 766 763 759 756 754 752 751 750 750 750 749 748 747 746 745 744 744 744 742 740 739 738 733 731 732
761 760 759 757 756 754 752 750 748 746 744 744 742 740 738 735 733 731 728 727 727 728 729 731 733 736 739 741 743 745 748 752 755 758 761 764 767 769 771 772 773 774 774 775 776 778 779 780 779 778 777 777 777 776 776 774 772 770 768 765 763 760 757 754 751 749 748 746 745 745 743 743 742 740 739 738 738 737 737 735 733 732 729 729 730
759 758 756 755 753 751 749 747 745 743 742 741 740 737 734 732 729 725 723 724 725 726 728 731 733 735 738 742 746 750 753 755 756 758 760 763 766 768 770 771 772 774 775 776 777 778 778 778 777 776 775 775 776 775 773 771 769 766 764 762 760 757 755 753 749 746 745 743 741 740 738 737 736 734 733 733 732 731 731 729 727 726 726 726 726
756 755 754 752 750 748 746 744 742 741 739 737 736 733 730 727 724 720 720 721 723 725 728 731 733 736 738 742 747 752 754 755 756 758 760 763 765 767 769 770 772 774 775 777 777 777 777 775 774 774 774 774 774 773 771 768 766 763 761 759 757 755 753 752 748 744 741 739 737 735 733 731 730 728 727 726 725 725 724 722 721 721 721 721 721
754 752 751 750 748 746 744 742 740 738 736 734 733 730 727 725 723 721 720 721 722 725 728 730 733 738 742 744 748 751 753 755 756 758 761 763 765 767 769 770 772 774 775 776 776 776 775 774 773 773 773 772 771 770 768 765 763 760 758 756 754 752 751 749 746 742 738 735 732 730 727 726 724 722 721 720 719 718 717 715 714 714 714 715 715
751 749 748 747 746 744 742 740 738 736 734 732 730 729 727 727 725 723 722 722 724 726 727 731 736 741 743 745 748 751 753 755 756 758 760 763 765 767 768 770 772 774 775 775 775 775 774 773 772 771 770 769 768 767 765 763 760 758 756 754 752 750 747 745 742 738 735 731 728 725 722 720 718 716 714 713 711 710 709 708 707 707 708 708 707
749 747 745 744 743 741 740 739 737 734 733 732 730 729 729 729 729 727 725 724 726 728 731 736 740 742 744 746 748 751 753 755 757 759 761 763 765 767 768 770 772 774 775 775 774 773 772 770 770 769 768 767 766 765 763 761 759 757 754 751 748 746 743 741 737 734 730 727 723 720 717 714 712 709 708 706 704 702 701 700 699 700 700 700 699
748 745 743 742 741 739 738 737 736 734 734 733 731 731 732 732 732 732 730 730 731 733 736 739 742 743 744 746 748 751 753 755 757 759 761 763 765 767 769 770 772 773 774 773 772 771 770 769 768 767 767 766 765 764 761 759 757 754 751 747 744 741 738 736 732 729 725 722 718 715 712 709 706 704 701 699 697 696 694 693 692 691 691 691 691
745 742 741 740 739 738 737 736 735 735 735 735 734 734 734 734 734 736 736 737 738 738 739 740 742 743 745 746 749 751 753 756 758 759 760 762 765 767 769 770 772 772 772 771 770 769 769 768 767 767 766 765 764 762 760 757 754 751 747 744 741 738 735 732 728 725 721 717 714 711 707 704 701 698 695 693 691 689 687 686 684 683 683 683 683
742 740 739 738 736 736 735 734 733 734 735 736 736 736 736 736 737 739 740 741 741 741 741 742 742 744 746 748 750 752 754 756 759 760 761 764 766 767 769 770 770 770 770 770 769 769 768 768 767 766 765 763 762 759 757 754 752 749 745 742 738 735 732 729 725 721 718 714 710 707 703 700 697 694 691 688 685 683 681 679 677 676 676 676 676
739 738 737 735 734 733 732 731 731 733 734 735 737 738 738 739 740 741 742 742 742 741 742 743 744 745 747 749 751 753 755 757 759 760 762 764 766 767 768 769 769 770 770 770 770 769 768 767 766 765 764 762 760 757 754 752 749 746 743 740 736 733 729 725 721 718 715 711 707 704 700 697 694 691 687 684 681 678 676 673 671 670 669 669 668
737 736 734 733 731 731 731 730 730 731 733 734 736 738 738 740 741 741 742 743 742 741 742 744 745 747 748 750 752 754 756 758 759 761 762 764 765 766 767 768 769 770 770 770 770 769 768 767 765 763 762 761 758 755 752 749 746 743 740 737 733 730 726 722 719 715 712 709 705 701 698 695 691 688 684 681 677 674 671 668 666 664 662 662 662